[[{"header":{"parameterUnit":"m.s-1","parameterCategory":1,"la1":30.2991,"la2":30.254,"lo1":-89.0895,"lo2":-89.0444,"dy":0.0017,"dx":0.0017,"nx":28,"ny":28,"refTime":"2024-10-10T09:00:00:Z","depth":0,"parameterNumber":2,"parameterNumberName":"U-component_of_WINDS"},"data":[0,0,0,0,0,0,0,0,0,0,0,0,0,0,0,0,0,0,0,0,0,0,0,0,0,0,0,0,0,0,0,0,0,0,0,0,0,0,0,0,0,0,0,0,0,0,0,0,0,0,0,0,0,0,0,0,0,0,-2.6749,-2.6749,0,-2.6761,-2.6762,-2.6762,-2.6634,-2.663,-2.6627,-2.6624,-2.664,-2.6644,-2.6647,0,0,0,0,0,0,0,0,0,0,0,0,0,-2.6617,-2.662,-2.6749,-2.6749,-2.6749,-2.6761,-2.6762,-2.6762,-2.6635,-2.663,-2.6626,-2.6622,-2.6639,-2.6643,-2.6648,0,0,0,0,0,0,0,0,0,0,0,0,0,-2.6657,-2.6621,-2.6749,-2.6687,-2.6682,-2.6761,-2.6762,-2.6762,-2.6635,-2.663,-2.6625,-2.662,-2.6637,-2.6643,-2.6648,-2.6789,0,0,-2.6666,-2.6668,0,0,0,0,0,0,0,0,-2.6655,-2.6662,-2.6696,-2.6692,-2.6686,-2.6691,-2.6721,-2.6771,-2.6637,-2.6653,-2.6623,-2.6617,-2.6661,-2.6665,-2.6679,-2.679,-2.679,-2.6666,-2.6669,-2.6672,-2.6673,0,0,0,0,0,0,0,-2.6652,-2.666,-2.6754,-2.6697,-2.669,-2.6659,-2.6659,-2.673,-2.6687,-2.6651,-2.6642,-2.6645,-2.6658,-2.6674,-2.6678,-2.6791,-2.6666,-2.6671,-2.6674,-2.6676,-2.7017,-2.7022,0,0,0,0,0,0,-2.6657,-2.6659,-2.6753,-2.6754,-2.6657,-2.6666,-2.6666,-2.6694,-2.6686,-2.6679,-2.665,-2.6639,-2.6667,-2.6672,-2.6678,-2.6843,-2.6672,-2.6677,-2.668,-2.7011,-2.7018,-2.7024,0,0,0,0,0,0,-2.6655,-2.6667,-2.6753,-2.6704,-2.6713,-2.6674,-2.6707,-2.6697,-2.6713,-2.6684,-2.6676,-2.6674,-2.6663,-2.6671,-2.6762,-2.6841,-2.668,-2.6685,-2.7004,-2.7013,-2.7021,-2.7173,0,0,0,0,0,0,-2.6652,-2.6667,-2.672,-2.6706,-2.6716,-2.6837,-2.6712,-2.6702,-2.6723,-2.6709,-2.6705,-2.6699,-2.6659,-2.6754,-2.6768,-2.6846,-2.6689,-2.6997,-2.7008,-2.7018,-2.716,-2.7185,-2.7206,0,0,0,0,0,-2.6647,-2.6763,-2.6723,-2.6735,-2.6781,-2.6841,-2.6847,-2.6797,-2.673,-2.6783,-2.6764,-2.67,-2.683,-2.6765,-2.6779,-2.686,-2.6992,-2.7005,-2.7018,-2.715,-2.718,-2.7206,0,0,0,0,0,0,-2.6788,-2.676,-2.6716,-2.683,-2.6839,-2.682,-2.6885,-2.6831,-2.686,-2.6847,-2.6784,-2.6785,-2.6887,-2.6882,-2.681,-2.6995,-2.6899,-2.6916,-2.6995,-2.7024,-2.7046,-2.7047,-2.6694,0,0,0,0,0,-2.6832,-2.6883,-2.6855,-2.6959,-2.6965,-2.6925,-2.6949,-2.691,-2.6917,-2.6921,-2.6909,-2.6919,-2.6962,-2.6992,-2.703,-2.7158,-2.7156,-2.7221,-2.7244,-2.7263,-2.7278,-2.7345,-2.7374,-2.7066,-2.7066,-2.7066,0,0,-2.6925,-2.6915,-2.6951,-2.6987,-2.6989,-2.7044,-2.6929,-2.6992,-2.7032,-2.6931,-2.7016,-2.7008,-2.7015,-2.7125,-2.7173,-2.7125,-2.7362,-2.7279,-2.7294,-2.73,-2.7362,-2.7391,-2.7417,-2.7075,-2.7073,-2.7072,0,0,-2.7121,-2.7119,-2.7204,-2.7208,-2.7213,-2.7184,-2.7205,-2.7194,-2.7184,-2.7268,-2.7193,-2.724,-2.7315,-2.7324,-2.7338,-2.7535,-2.7477,-2.7549,-2.7671,-2.7737,-2.7761,-2.7782,-2.7854,-2.788,-2.7564,-2.7564,-2.7564,0,-2.7236,-2.7314,-2.7256,-2.7323,-2.7342,-2.725,-2.7337,-2.7344,-2.7361,-2.7376,-2.732,-2.7412,-2.7411,-2.7522,-2.757,-2.7584,-2.7606,-2.7551,-2.7762,-2.7783,-2.7802,-2.7869,-2.7896,-2.7573,-2.7572,-2.7571,-2.757,0,-2.7456,-2.7511,-2.758,-2.7597,-2.7623,-2.77,-2.7654,-2.7686,-2.7644,-2.7622,-2.7709,-2.7703,-2.7738,-2.7761,-2.7721,-2.7867,-2.7836,-2.7772,-2.7675,-2.7841,-2.7903,-2.7929,-2.7586,-2.7583,-2.758,-2.7578,0,0,-2.7745,-2.7726,-2.7753,-2.7759,-2.7756,-2.7798,-2.7871,-2.7903,-2.7933,-2.7947,-2.8008,-2.8072,-2.8012,-2.8029,-2.7988,-2.8046,-2.8204,-2.7975,-2.7974,-2.8019,-2.8364,-2.8414,-2.8445,-2.8164,-2.8168,-2.8172,-2.8364,0,-2.7937,-2.8059,-2.8008,-2.8136,-2.8186,-2.8098,-2.8161,-2.8167,-2.8147,-2.8188,-2.8166,-2.8214,-2.8131,-2.814,-2.8193,-2.8174,-2.8273,-2.8158,-2.8221,-2.8224,-2.8224,-2.8477,-2.8531,-2.8713,-2.8388,-2.8392,-2.8395,0,-2.8179,-2.8201,-2.8334,-2.832,-2.834,-2.8398,-2.8423,-2.8462,-2.8466,-2.8448,-2.8465,-2.8411,-2.8481,-2.8382,-2.8479,-2.8403,-2.8424,-2.8419,-2.8424,-2.8431,-2.8322,-2.8493,-2.8769,-2.8798,-2.8433,-2.843,-2.8427,0,-2.8378,-2.8442,-2.8529,-2.8537,-2.8523,-2.8566,-2.8562,-2.856,-2.8583,-2.8605,-2.8619,-2.865,-2.8667,-2.8692,-2.8648,-2.858,-2.8752,-2.8649,-2.874,-2.8742,-2.8783,-2.8781,-2.9069,-2.8793,-2.8793,-2.8792,-2.8792,0,-2.86,-2.8685,-2.8618,-2.8672,-2.8765,-2.8704,-2.8797,-2.8784,-2.8783,-2.8833,-2.8758,-2.8808,-2.8745,-2.8788,-2.8754,-2.884,-2.8848,-2.8836,-2.8826,-2.8844,-2.8846,-2.886,-2.8847,-2.88,-2.8798,-2.8797,-2.8795,0,-2.884,-2.8798,-2.8888,-2.8866,-2.8863,-2.8932,-2.8914,-2.8963,-2.8937,-2.9002,-2.9013,-2.8973,-2.902,-2.8977,-2.9023,-2.8999,-2.9114,-2.9085,-2.9114,-2.9106,-2.92,-2.9193,-2.9509,-2.9548,-2.9245,-2.9248,-2.9251,0,-2.8986,-2.9049,-2.9033,-2.9061,-2.9061,-2.9107,-2.9129,-2.9071,-2.9097,-2.9105,-2.9154,-2.9194,-2.9223,-2.9302,-2.9277,-2.9311,-2.9284,-2.9392,-2.9289,-2.9304,-2.9288,-2.9285,-2.9292,-2.9414,-2.9418,-2.9421,-2.9423,0,-2.9249,-2.9225,-2.9259,-2.9286,-2.9314,-2.9333,-2.9346,-2.9373,-2.9313,-2.9346,-2.9392,-2.9415,-2.9459,-2.95,-2.9526,-2.9522,-2.9464,-2.9455,-2.9478,-2.9499,-2.9513,-2.9508,-2.9173,-2.9449,-2.9446,-2.9445,-2.9443,-2.9442,-2.9448,-2.9499,-2.9496,-2.9537,-2.9539,-2.9553,-2.9598,-2.9577,-2.9614,-2.9645,-2.9608,-2.9665,-2.9665,-2.9693,-2.9697,-2.9741,-2.9695,-2.9729,-2.9737,-2.9747,-2.9762,-2.9504,-2.9745,-2.9744,-2.9743,-2.9743,-2.9742,0,-2.9708,-2.9701,-2.9739,-2.9758,-2.979,-2.9729,-2.974,-2.9771,-2.9821,-2.9826,-2.9855,-2.9908,-2.9947,-2.9924,-2.9958,-2.9997,-2.9971,-3.0008,-3.0006,-3.0007,-2.9799,-2.9777,-3.0029,-3.0029,-3.0029,-3.0029,-3.0029,-3.0029,-2.9848,-2.9933,-2.9908,-2.9993,-2.9985,-3.0039,-3.005,-3.0062,-3.0066,-3.0128,-3.0159,-3.0143,-3.0137,-3.0169,-3.0202,-3.0194,-3.0211,-3.0258,-3.0242,-3.0049,-3.0021,-2.9994,-2.9973,-3.0262,-3.0262,-3.0445,-3.0447,-3.0448]},{"header":{"parameterUnit":"m.s-1","parameterCategory":1,"la1":30.2991,"la2":30.254,"lo1":-89.0895,"lo2":-89.0444,"dy":0.0017,"dx":0.0017,"nx":28,"ny":28,"refTime":"2024-10-10T09:00:00:Z","depth":0,"parameterNumber":3,"parameterNumberName":"V-component_of_WINDS"},"data":[0,0,0,0,0,0,0,0,0,0,0,0,0,0,0,0,0,0,0,0,0,0,0,0,0,0,0,0,0,0,0,0,0,0,0,0,0,0,0,0,0,0,0,0,0,0,0,0,0,0,0,0,0,0,0,0,0,0,-3.7585,-3.7586,0,-3.7641,-3.7642,-3.7642,-3.7598,-3.7596,-3.7594,-3.7593,-3.7647,-3.765,-3.7653,0,0,0,0,0,0,0,0,0,0,0,0,0,-3.7437,-3.744,-3.7585,-3.7586,-3.7587,-3.7641,-3.7642,-3.7642,-3.7598,-3.7596,-3.7594,-3.7592,-3.7646,-3.765,-3.7654,0,0,0,0,0,0,0,0,0,0,0,0,0,-3.7498,-3.7441,-3.7585,-3.7571,-3.7571,-3.7641,-3.7642,-3.7643,-3.7599,-3.7596,-3.7593,-3.7591,-3.7645,-3.7649,-3.7654,-3.774,0,0,-3.7669,-3.7671,0,0,0,0,0,0,0,0,-3.7494,-3.7503,-3.7573,-3.7572,-3.7572,-3.761,-3.7609,-3.7675,-3.76,-3.7588,-3.7593,-3.7589,-3.7637,-3.7642,-3.7659,-3.7743,-3.7745,-3.7669,-3.7672,-3.7674,-3.7676,0,0,0,0,0,0,0,-3.749,-3.75,-3.7607,-3.7574,-3.7573,-3.7561,-3.7567,-3.7621,-3.7627,-3.7589,-3.7586,-3.7593,-3.7636,-3.7654,-3.7659,-3.7746,-3.7669,-3.7673,-3.7676,-3.7678,-3.7901,-3.7904,0,0,0,0,0,0,-3.7488,-3.7497,-3.7605,-3.7609,-3.7525,-3.7566,-3.7572,-3.76,-3.7627,-3.7628,-3.7595,-3.7591,-3.7647,-3.7654,-3.7661,-3.7762,-3.7674,-3.7679,-3.7681,-3.7898,-3.7901,-3.7905,0,0,0,0,0,0,-3.7485,-3.7498,-3.7603,-3.7552,-3.7565,-3.7572,-3.7603,-3.7603,-3.7621,-3.7632,-3.7632,-3.7613,-3.7645,-3.7654,-3.772,-3.7763,-3.7681,-3.7685,-3.7894,-3.7899,-3.7903,-3.7965,0,0,0,0,0,0,-3.7481,-3.7497,-3.7531,-3.7553,-3.7568,-3.7663,-3.7606,-3.7606,-3.763,-3.7624,-3.7648,-3.765,-3.7644,-3.7714,-3.7725,-3.7768,-3.7689,-3.789,-3.7896,-3.7901,-3.7959,-3.7971,-3.7982,0,0,0,0,0,-3.7475,-3.7546,-3.7533,-3.7546,-3.761,-3.7665,-3.7673,-3.7666,-3.7633,-3.7667,-3.7673,-3.7649,-3.7757,-3.7721,-3.7733,-3.7779,-3.7887,-3.7894,-3.7901,-3.7954,-3.7969,-3.7981,0,0,0,0,0,0,-3.7528,-3.7549,-3.7534,-3.7614,-3.7639,-3.7658,-3.77,-3.7682,-3.7715,-3.7708,-3.7697,-3.7703,-3.7772,-3.7782,-3.7741,-3.7862,-3.7817,-3.7827,-3.7853,-3.7867,-3.7878,-3.7873,-3.7693,0,0,0,0,0,-3.7549,-3.7593,-3.7608,-3.7677,-3.769,-3.7693,-3.7717,-3.7709,-3.7733,-3.7743,-3.7754,-3.7778,-3.7816,-3.7842,-3.7879,-3.7961,-3.7964,-3.7998,-3.8009,-3.8018,-3.8026,-3.8068,-3.8083,-3.7927,-3.7927,-3.7927,0,0,-3.7592,-3.7609,-3.7637,-3.7688,-3.7706,-3.775,-3.7702,-3.7752,-3.7784,-3.775,-3.7813,-3.7822,-3.7847,-3.7921,-3.7954,-3.7932,-3.807,-3.8027,-3.8034,-3.8037,-3.8077,-3.8092,-3.8105,-3.7932,-3.7931,-3.793,0,0,-3.7693,-3.7712,-3.777,-3.7789,-3.7817,-3.7818,-3.7832,-3.7854,-3.7859,-3.7922,-3.7897,-3.7934,-3.8003,-3.8021,-3.8039,-3.8146,-3.8125,-3.8159,-3.8216,-3.8257,-3.827,-3.828,-3.8317,-3.8331,-3.8167,-3.8167,-3.8167,0,-3.7744,-3.7811,-3.7803,-3.7854,-3.7876,-3.7848,-3.7906,-3.7924,-3.7962,-3.7978,-3.7952,-3.8036,-3.8051,-3.8128,-3.8154,-3.817,-3.8184,-3.8155,-3.8269,-3.828,-3.829,-3.8324,-3.8338,-3.8171,-3.8171,-3.817,-3.817,0,-3.787,-3.7917,-3.7961,-3.7999,-3.8026,-3.8081,-3.8079,-3.8107,-3.8097,-3.81,-3.8163,-3.8181,-3.8219,-3.8237,-3.8227,-3.8312,-3.8297,-3.8271,-3.8225,-3.8308,-3.8341,-3.8354,-3.8176,-3.8175,-3.8174,-3.8173,0,0,-3.8007,-3.8038,-3.8054,-3.807,-3.8098,-3.8133,-3.8186,-3.8224,-3.8248,-3.8275,-3.8317,-3.8375,-3.835,-3.8371,-3.8363,-3.8399,-3.848,-3.8368,-3.8368,-3.8387,-3.8573,-3.8591,-3.8607,-3.8467,-3.8469,-3.8471,-3.857,0,-3.8108,-3.82,-3.8194,-3.828,-3.8322,-3.8295,-3.8341,-3.8362,-3.8366,-3.8401,-3.8405,-3.8446,-3.8411,-3.8423,-3.8458,-3.8463,-3.8517,-3.8456,-3.8504,-3.8506,-3.8498,-3.8624,-3.8645,-3.8737,-3.8583,-3.8585,-3.8587,0,-3.8239,-3.8271,-3.8362,-3.8381,-3.8399,-3.844,-3.8473,-3.8508,-3.8531,-3.8531,-3.8554,-3.8539,-3.859,-3.8544,-3.8613,-3.8571,-3.8591,-3.8596,-3.8599,-3.8603,-3.8551,-3.8629,-3.8767,-3.878,-3.8607,-3.8605,-3.8604,0,-3.8327,-3.8392,-3.8455,-3.8469,-3.8495,-3.8524,-3.8535,-3.8555,-3.8578,-3.8608,-3.8622,-3.8657,-3.8675,-3.8702,-3.8696,-3.8663,-3.8766,-3.872,-3.8766,-3.8766,-3.8788,-3.8787,-3.8929,-3.8803,-3.8803,-3.8803,-3.8803,0,-3.8441,-3.8497,-3.8494,-3.8533,-3.8594,-3.8585,-3.8646,-3.8654,-3.8671,-3.8709,-3.8688,-3.8724,-3.8715,-3.8751,-3.8746,-3.8803,-3.8812,-3.8813,-3.881,-3.8814,-3.8813,-3.8825,-3.8818,-3.8806,-3.8806,-3.8805,-3.8804,0,-3.8549,-3.855,-3.8616,-3.8634,-3.864,-3.8684,-3.8699,-3.8735,-3.8737,-3.8785,-3.8796,-3.8799,-3.8839,-3.8836,-3.8882,-3.8879,-3.8948,-3.894,-3.8941,-3.8938,-3.8985,-3.898,-3.9139,-3.9158,-3.9021,-3.9022,-3.9023,0,-3.8621,-3.8664,-3.8687,-3.8711,-3.8724,-3.8764,-3.8787,-3.878,-3.8804,-3.8833,-3.8864,-3.8902,-3.8932,-3.8998,-3.9003,-3.9037,-3.9028,-3.9081,-3.9033,-3.9034,-3.9027,-3.9024,-3.9027,-3.909,-3.9092,-3.9093,-3.9094,0,-3.8748,-3.8746,-3.8781,-3.8816,-3.8844,-3.8871,-3.8895,-3.8916,-3.8911,-3.8939,-3.898,-3.9004,-3.905,-3.9087,-3.9119,-3.913,-3.9111,-3.9109,-3.9122,-3.9125,-3.9123,-3.9123,-3.8965,-3.9106,-3.9104,-3.9104,-3.9103,-3.9102,-3.8839,-3.8875,-3.8896,-3.8935,-3.8953,-3.8976,-3.9009,-3.9016,-3.905,-3.9087,-3.908,-3.9126,-3.9146,-3.9187,-3.9201,-3.9235,-3.9216,-3.9234,-3.9238,-3.9242,-3.9247,-3.9119,-3.9241,-3.9241,-3.924,-3.924,-3.924,0,-3.8963,-3.8975,-3.9011,-3.9046,-3.9076,-3.9057,-3.9082,-3.9109,-3.9149,-3.917,-3.92,-3.9246,-3.9282,-3.929,-3.9324,-3.935,-3.9342,-3.9359,-3.9356,-3.9359,-3.9263,-3.9248,-3.9365,-3.9365,-3.9365,-3.9365,-3.9365,-3.9365,-3.9031,-3.909,-3.909,-3.9157,-3.9169,-3.9214,-3.923,-3.925,-3.9266,-3.9319,-3.9349,-3.9355,-3.937,-3.9404,-3.9436,-3.9437,-3.945,-3.947,-3.9468,-3.9378,-3.9366,-3.9354,-3.934,-3.9474,-3.9474,-3.9561,-3.9561,-3.9562]}]]